WetterOnline ( https://www.wetteronline.ch )

Wetter aktuell Nördlingen

Aktuelles Wetter: Harburg (503m)

6-stündlich | Neueste Meldungen
Ortszeit Temperatur Wetter
Di, 02.06. 14:00 22.9° C wolkenlos
Di, 02.06. 8:00 15.4° C wolkenlos
Di, 02.06. 2:00 14.9° C wolkenlos
Mo, 01.06. 20:00 21.3° C wolkenlos
Mo, 01.06. 14:00 21.6° C fast wolkenlos
Mo, 01.06. 8:00 13.0° C wolkenlos
Mo, 01.06. 2:00 11.8° C bedeckt
So, 31.05. 20:00 16.1° C bedeckt
Ortszeit Temperatur Wetter
Di, 02.06. 19:00 23.2° C wolkig
Di, 02.06. 18:50 23.2° C wolkig
Di, 02.06. 18:40 23.4° C wolkig
Di, 02.06. 18:30 24.1° C leicht bewölkt
Di, 02.06. 18:20 24.1° C leicht bewölkt
Di, 02.06. 18:10 25.1° C fast wolkenlos
Di, 02.06. 18:00 24.4° C fast wolkenlos
Di, 02.06. 17:30 23.8° C wolkenlos
Di, 02.06. 17:00 23.4° C fast wolkenlos
Di, 02.06. 16:30 23.5° C leicht bewölkt
Di, 02.06. 16:00 23.6° C fast wolkenlos
Ortszeit Relative Feuchte Sichtweite
Di, 02.06. 14:00 32% 60 km
Di, 02.06. 8:00 58% 45 km
Di, 02.06. 2:00 56% 65 km
Mo, 01.06. 20:00 37% 65 km
Mo, 01.06. 14:00 38% 24 km
Mo, 01.06. 8:00 70% 40 km
Mo, 01.06. 2:00 71% 70 km
So, 31.05. 20:00 45% 70 km
Ortszeit Relative Feuchte Sichtweite
Di, 02.06. 19:00 31% 70 km
Di, 02.06. 18:50 31% -
Di, 02.06. 18:40 30% -
Di, 02.06. 18:30 25% 70 km
Di, 02.06. 18:20 25% -
Di, 02.06. 18:10 26% -
Di, 02.06. 18:00 28% 70 km
Di, 02.06. 17:30 27% 65 km
Di, 02.06. 17:00 27% 70 km
Di, 02.06. 16:30 28% 60 km
Di, 02.06. 16:00 32% 55 km
Ortszeit Niederschlagsmenge Niederschlagsart
Di, 02.06. 14:00 0.0 l/m2 in 6 Std. -
Di, 02.06. 8:00 0.0 l/m2 in 12 Std. -
Di, 02.06. 2:00 0.0 l/m2 in 6 Std. -
Mo, 01.06. 20:00 0.0 l/m2 in 12 Std. -
Mo, 01.06. 14:00 0.0 l/m2 in 6 Std. -
Mo, 01.06. 8:00 0.0 l/m2 in 12 Std. -
Mo, 01.06. 2:00 0.0 l/m2 in 6 Std. -
So, 31.05. 20:00 0.0 l/m2 in 12 Std. -
Ortszeit Niederschlagsmenge Niederschlagsart
Di, 02.06. 19:00 0.0 l/m2 in 1 Std. -
Di, 02.06. 18:50 keine Meldung -
Di, 02.06. 18:40 keine Meldung -
Di, 02.06. 18:30 0.0 l/m2 in 1 Std. -
Di, 02.06. 18:20 keine Meldung -
Di, 02.06. 18:10 keine Meldung -
Di, 02.06. 18:00 0.0 l/m2 in 1 Std. -
Di, 02.06. 17:30 0.0 l/m2 in 1 Std. -
Di, 02.06. 17:00 0.0 l/m2 in 1 Std. -
Di, 02.06. 16:30 0.0 l/m2 in 1 Std. -
Di, 02.06. 16:00 0.0 l/m2 in 1 Std. -
Ortszeit Stärke Spitze Richtung
km/h Bft. km/h Grad Sektor
Di, 02.06. 14:00 7 2 40 130° SO
Di, 02.06. 8:00 4 1 18 60° NO
Di, 02.06. 2:00 14 3 22 80° O
Mo, 01.06. 20:00 13 3 35 130° SO
Mo, 01.06. 14:00 18 3 40 110° O
Mo, 01.06. 8:00 7 2 18 90° O
Mo, 01.06. 2:00 13 3 28 100° O
So, 31.05. 20:00 13 3 24 60° NO
Ortszeit Stärke Spitze Richtung
km/h Bft. km/h Grad Sektor
Di, 02.06. 19:00 9 2 15 150° SO
Di, 02.06. 18:50 9 2 - 150° SO
Di, 02.06. 18:40 6 1 - 250° W
Di, 02.06. 18:30 6 1 9 300° NW
Di, 02.06. 18:20 6 1 - 300° NW
Di, 02.06. 18:10 4 1 - 10° N
Di, 02.06. 18:00 6 1 17 100° O
Di, 02.06. 17:30 7 2 13 140° SO
Di, 02.06. 17:00 7 2 22 60° NO
Di, 02.06. 16:30 13 3 20 100° O
Di, 02.06. 16:00 11 2 22 80° O
Ortszeit Untergrenze Bedeckung Gattung
total tief tief mittel hoch
Di, 02.06. 14:00 - 0/8 0/8 - - -
Di, 02.06. 8:00 - 0/8 0/8 - - -
Di, 02.06. 2:00 - 0/8 0/8 - - -
Mo, 01.06. 20:00 - 0/8 0/8 - - -
Mo, 01.06. 14:00 1500 m 1/8 1/8 - - -
Mo, 01.06. 8:00 - 0/8 0/8 - - -
Mo, 01.06. 2:00 1800 m 8/8 8/8 - - -
So, 31.05. 20:00 1800 m 8/8 8/8 - - -
Ortszeit Bedeckungsgrad in Achtel und Wolkenuntergrenze
Di, 02.06. 19:00 6(2400m)
Di, 02.06. 18:50 6(2400m)
Di, 02.06. 18:40 5(2400m)
Di, 02.06. 18:30 4(2400m)
Di, 02.06. 18:20 4(2400m)
Di, 02.06. 18:10 1(2400m)
Di, 02.06. 18:00 1(2400m)
Di, 02.06. 17:30 keine Wolken
Di, 02.06. 17:00 1(2100m)
Di, 02.06. 16:30 3(2100m)
Di, 02.06. 16:00 1(2100m)
Ortszeit Luftdruck NN (hPa) Tendenz (hPa in 3 Std.)
Di, 02.06. 14:00 1015 - 1,4
Di, 02.06. 8:00 1018 + 0,4
Di, 02.06. 2:00 1019 - 0,1
Mo, 01.06. 20:00 1017 - 0,6
Mo, 01.06. 14:00 1019 - 0,8
Mo, 01.06. 8:00 1022 + 0,4
Mo, 01.06. 2:00 1022 - 0,3
So, 31.05. 20:00 1020 + 0,4
Ortszeit Luftdruck NN (hPa) Tendenz (hPa in 3 Std.)
Di, 02.06. 19:00 1012 - 1,9
Di, 02.06. 18:50 1012 keine Meldung
Di, 02.06. 18:40 1012 keine Meldung
Di, 02.06. 18:30 1012 - 2,0
Di, 02.06. 18:20 1012 keine Meldung
Di, 02.06. 18:10 1012 keine Meldung
Di, 02.06. 18:00 1012 - 2,1
Di, 02.06. 17:30 1013 - 2,0
Di, 02.06. 17:00 1013 - 1,9
Di, 02.06. 16:30 1013 - 2,0
Di, 02.06. 16:00 1014 - 1,9
Ortszeit Schneehöhe (cm)
Di, 02.06. 14:00 -
Di, 02.06. 8:00 -
Di, 02.06. 2:00 -
Mo, 01.06. 20:00 -
Mo, 01.06. 14:00 -
Mo, 01.06. 8:00 -
Mo, 01.06. 2:00 -
So, 31.05. 20:00 -
Ortszeit Schneehöhe (cm)
Di, 02.06. 19:00 -
Di, 02.06. 18:50 -
Di, 02.06. 18:40 -
Di, 02.06. 18:30 -
Di, 02.06. 18:20 -
Di, 02.06. 18:10 -
Di, 02.06. 18:00 -
Di, 02.06. 17:30 -
Di, 02.06. 17:00 -
Di, 02.06. 16:30 -
Di, 02.06. 16:00 -
Link zu dieser Seite / Seite empfehlen

Das Wetter in ...